sat.trackr.live / text

‹ back to catalog

STARLINK-35740

NORAD 66210 · 2025-244E

PAYLOAD ACTIVE UNKNOWN

§ Identity

Operator
Country
US
Launch date
2025-10-28
Launch site
AFWTR
Launch vehicle
Mass (kg)
RCS (m²)

Purposes: comms

External: N2YO · Heavens-Above · Gunter

§ Orbital elements

Epoch: 2026-05-24T23:35:31.351200Z

Period
94.11 min
Inclination
53.1592°
Eccentricity
0.0001084
Mean motion
15.30203313 rev/d
Perigee alt
474.5 km
Apogee alt
475.9 km
Semi-major
6,853.3 km
B*
7.8221e-4
RAAN
235.3061°
Arg perigee
79.7528°
Mean anomaly
280.3595°
Rev number
3,334

§ Raw data

STARLINK-357401 66210U 25244E   26144.98300175  .00022881  00000+0  78221-3 0  99952 66210  53.1592 235.3061 0001084  79.7528 280.3595 15.30203313 33349

JSON: /api/v1/satellites/66210 · /tle

For live sub-satellite position, see the globe view (requires WebGL).

§ Visibility from observer

Set your observer location to see the next 7 days of passes ≥ 10°. The values pass through the URL so the page stays shareable.

No JS? Fill the form by hand. The geolocation button needs JavaScript.